Regional Weather Roundup
Issued by NWS

Home | Current Version | Previous Version | Graphics & Text | Print | Product List | Glossary On
Versions: 1 2 3 4 5 6 7 8 9 10 11 12 13 14 15 16 17 18 19 20 21 22 23 24 25 26 27 28 29 30 31 32 33 34 35 36 37 38 39 40 41 42 43 44 45 46 47 48 49 50
000
ASUS43 KDMX 220301
RWRIA

WEATHER ROUNDUP FOR IOWA
NATIONAL WEATHER SERVICE DES MOINES IA
900 PM CST TUE FEB 21 2017

NOTE: "FAIR" INDICATES FEW OR NO CLOUDS BELOW 12,000 FEET WITH NO
SIGNIFICANT WEATHER AND/OR OBSTRUCTIONS TO VISIBILITY.

* - THESE STATIONS ARE NOT NWS STATIONS...THUS NOT UNDER NWS
QUALITY CONTROL.  THEY ALSO DO NOT REPORT WEATHER SUCH
AS PRECIPITATION OR FOG.

IAZ001>003-012>014-020>022-031>034-043>046-220400-
   NORTHWEST IOWA

CITY           SKY/WX    TMP DP  RH WIND       PRES   REMARKS
CARROLL *      CLEAR     54  41  62 SW20      29.77S
CHEROKEE *     CLEAR     49  38  66 S6        29.73F
DENISON *      CLEAR     54  39  58 S13G20    29.75S
LE MARS *      CLEAR     50  37  62 S8        29.72S
ORANGE CITY *  CLEAR     50  39  66 S8        29.71F
SHELDON *      CLEAR     52  41  66 S12       29.69F
SIOUX CITY     CLEAR     52  37  56 E6        29.72F
SPENCER        CLEAR     48  40  73 S12       29.72S
STORM LAKE *   CLEAR     46  39  76 S9        29.74F
$$

IAZ055>058-069>071-079>083-090>094-220400-
   SOUTHWEST IOWA

CITY           SKY/WX    TMP DP  RH WIND       PRES   REMARKS
ATLANTIC *     CLEAR     52  41  66 S9        29.80F
CLARINDA *     CLEAR     48  39  71 SW6       29.85F
COUNCIL BLFS * CLEAR     59  36  41 S14       29.79F
CRESTON *      CLEAR     48  36  61 S12       29.85F
HARLAN  *      CLEAR     48  41  76 S3        29.82F
LAMONI         CLEAR     51  34  52 S9        29.85F
RED OAK *      CLEAR     48  39  71 S5        29.82S
SHENANDOAH *   CLEAR     52  37  58 CALM      29.83F
$$

IAZ047>049-059>061-072>074-084-220400-
   CENTRAL IOWA

CITY           SKY/WX    TMP DP  RH WIND       PRES   REMARKS
AMES           CLEAR     51  39  63 SW12      29.79F
ANKENY *       CLEAR     57  34  41 SW13      29.83S
BOONE *        CLEAR     55  36  47 SW12G20   29.79S
CHARITON *     CLEAR     50  36  57 S8        29.84S
DES MOINES     CLEAR     51  33  50 S7        29.82F
GRINNELL*      PTCLDY    51  37  57 S12       29.83S
KNOXVILLE *    CLEAR     54  32  43 S7        29.82S
MARSHALLTOWN   CLEAR     49  37  63 S6        29.80S
NEWTON *       PTCLDY    52  36  54 S14       29.81F
PELLA *        PTCLDY    52  33  48 S6        29.84S
PERRY *          N/A     46  40  80 S12       29.80S
$$

IAZ004>006-015-016-023>025-035-036-220400-
   NORTH CENTRAL IOWA

CITY           SKY/WX    TMP DP  RH WIND       PRES   REMARKS
ALGONA *       CLEAR     46  43  87 S14       29.74S
CLARION *      CLEAR     45  43  93 S10       29.76F
ESTHERVILLE    CLEAR     46  42  86 SW9       29.71S
FORT DODGE *   CLEAR     52  37  58 S13       29.76F
MASON CITY     CLEAR     43  38  82 S9        29.77F
FOREST CITY *    N/A     43  41  93 S8        29.75S
WEBSTER CITY * CLEAR     48  41  76 S10       29.75F
IOWA FALLS *     N/A     45  38  77 S5        29.80S
$$

IAZ007>011-017>019-026>030-037>042-050>054-066-220400-
   NORTHEAST IOWA

CITY           SKY/WX    TMP DP  RH WIND       PRES   REMARKS
CEDAR RAPIDS   CLEAR     48  37  65 S8        29.82F
CHARLES CITY * CLEAR     46  43  87 S9        29.79S
CLINTON *      CLEAR     50  42  74 S7        29.87F
DECORAH *      CLEAR     50  41  71 S10G18    29.78F
DUBUQUE        CLEAR     45  38  76 S7        29.84F
MONTICELLO *   CLEAR     41  37  87 SE5       29.84S
OELWEIN *      CLEAR     43  39  87 S9        29.82S
WATERLOO       CLEAR     49  38  65 S7        29.81R
$$

IAZ064-065-067-068-078-220400-
   EAST CENTRAL IOWA

CITY           SKY/WX    TMP DP  RH WIND       PRES   REMARKS
DAVENPORT      CLEAR     45  39  79 S8        29.87F
IOWA CITY      CLEAR     47  38  71 CALM      29.86F
MUSCATINE *    CLEAR     48  41  76 S5        29.87S
QUAD CITIES    CLEAR     46  41  82 CALM      29.87S
$$

IAZ062-063-075>077-085>089-095>099-220400-
   SOUTHEAST IOWA

CITY           SKY/WX    TMP DP  RH WIND       PRES   REMARKS
BURLINGTON     CLEAR     55  54  96 S3        29.87F
FAIRFIELD *    CLEAR     52  45  76 S9        29.86S
KEOKUK *       CLEAR     59  55  88 CALM      29.87F
OTTUMWA        PTCLDY    50  31  48 S7        29.84F
WASHINGTON *   CLEAR     50  41  71 S8        29.87S
$$

ABBREVIATIONS USED IN REMARKS
   TC - TEMPERATURES IN CELSIUS
  WCI - WIND CHILL INDEX
   HX - HEAT INDEX
  VSB - VISIBILITY
$$





USA.gov is the U.S. government's official web portal to all federal, state and local government web resources and services.